This demonstration page uses our WeatherBlox Daily Observations layout. Learn more.

Left ArrowRight Arrow

41.86663, -103.66717

Hourly Observations for August 4, 2021

Temp ( °F °C ) Dew Point ( °F °C ) Humidity (%) Winds ( mph kmh ) Pressure ( in mb ) Visibility ( mi km ) Precip ( " mm )
12:53 am 00:53 Clear 70 21.1 55 12.8 59 59 WNW 12 19 29.95 1014 10 16 N/A
1:53 am 01:53 Clear 69 20.6 54 12.2 59 59 WNW 12 19 29.94 1014 10 16 N/A
2:53 am 02:53 Clear 69 20.6 56 13.3 63 63 WNW 10 17 29.94 1014 10 16 N/A
3:53 am 03:53 Mostly Cloudy 68 20 56 13.3 65 65 NW 12 19 29.94 1014 10 16 N/A
4:53 am 04:53 Mostly Cloudy 67 19.4 57 13.9 71 71 WSW 10 17 29.98 1015 10 16 0.00 0.00
5:53 am 05:53 Mostly Cloudy 68 20 56 13.3 65 65 W 7 11 30.01 1016 10 16 N/A
6:53 am 06:53 Cloudy with Light Rain 65 18.3 58 14.4 78 78 NW 7 11 30.04 1017 4 6 0.01 0.25
7:53 am 07:53 Cloudy with Light Rain 64 17.8 61 16.1 90 90 NW 9 15 30.03 1017 5 8 0.05 1.27
8:53 am 08:53 Cloudy with Light Rain 65 18.3 62 16.7 90 90 WNW 10 17 30.06 1018 5 8 0.01 0.25
9:53 am 09:53 Cloudy with Light Rain 66 18.9 64 17.8 93 93 NW 5 7 30.05 1018 7 11 0.02 0.51
10:53 am 10:53 Cloudy 67 19.4 61 16.1 81 81 NW 6 9 30.06 1018 7 11 0.00 0.00
11:53 am 11:53 Partly Cloudy 73 22.8 62 16.7 69 69 N N/A 30.04 1017 7 11 N/A
12:53 pm 12:53 Sunny 80 26.7 62 16.7 54 54 N N/A 30.00 1016 8 13 N/A
1:53 pm 13:53 Sunny 82 27.8 58 14.4 44 44 W 7 11 29.98 1015 9 14 N/A
2:53 pm 14:53 Sunny 87 30.6 56 13.3 35 35 WNW 8 13 29.95 1014 7 11 N/A
3:53 pm 15:53 Sunny 89 31.7 55 12.8 31 31 WNW 8 13 29.93 1014 7 11 N/A
4:53 pm 16:53 Mostly Sunny 91 32.8 46 7.8 21 21 NNW 13 20 29.92 1013 8 13 N/A
5:53 pm 17:53 Sunny 88 31.1 46 7.8 23 23 NNW 10 17 29.92 1013 8 13 N/A
6:53 pm 18:53 Sunny 87 30.6 47 8.3 25 25 N 9 15 29.93 1014 7 11 N/A
7:53 pm 19:53 Sunny 77 25 51 10.6 40 40 NNW 5 7 29.96 1015 7 11 N/A
8:53 pm 20:53 Clear 72 22.2 52 11.1 50 50 VRB 3 6 29.99 1016 9 14 N/A
9:53 pm 21:53 Clear 70 21.1 59 15 68 68 ENE 7 11 30.02 1017 8 13 N/A
10:53 pm 22:53 Mostly Clear 69 20.6 58 14.4 68 68 E 7 11 30.02 1017 9 14 N/A
11:53 pm 23:53 Clear 66 18.9 59 15 78 78 ESE 6 9 30.01 1016 9 14 N/A

Powered by AerisWeather